| time (UTC) | temp C | wind direction | speed KPH | gust KPH | rain 1hr cm | rain 24hr cm | rain mn cm | humidity % | barometer mb |
| 20260508134007 | 17 | 130 | 16.1 | 16.1 | 0.00 | 0.00 | 0.00 | 48 | 1016.9 |
| 20260508132504 | 17 | 130 | 16.1 | 16.1 | 0.00 | 0.00 | 0.00 | 48 | 1016.9 |
| 20260508132007 | 17 | 130 | 16.1 | 16.1 | 0.00 | 0.00 | 0.00 | 48 | 1016.9 |
| 20260508124007 | 17 | 100 | 14.5 | 14.5 | 0.00 | 0.00 | 0.00 | 45 | 1016.9 |
| 20260508122503 | 17 | 100 | 14.5 | 14.5 | 0.00 | 0.00 | 0.00 | 45 | 1016.9 |
| 20260508121504 | 17 | 100 | 14.5 | 14.5 | 0.00 | 0.00 | 0.00 | 45 | 1016.9 |
| 20260508120504 | 17 | 100 | 14.5 | 19.3 | 0.00 | 0.00 | 0.00 | 45 | 1016.9 |
| 20260508114504 | 16 | 110 | 19.3 | 19.3 | 0.00 | 0.00 | 0.00 | 44 | 1016.9 |
| 20260508111504 | 16 | 110 | 19.3 | 19.3 | 0.00 | 0.00 | 0.00 | 44 | 1016.9 |
| 20260508105007 | 16 | 130 | 11.3 | 11.3 | 0.00 | 0.00 | 0.00 | 47 | 1016.9 |
| 20260508103505 | 16 | 130 | 11.3 | 11.3 | 0.00 | 0.00 | 0.00 | 47 | 1016.9 |
| 20260508100004 | 16 | 130 | 11.3 | 11.3 | 0.00 | 0.00 | 0.00 | 47 | 1016.9 |
| 20260508094007 | 13 | 120 | 9.7 | 9.7 | 0.00 | 0.00 | 0.00 | 54 | 1016.9 |
| 20260508093504 | 13 | 120 | 9.7 | 9.7 | 0.00 | 0.00 | 0.00 | 54 | 1016.9 |
| 20260508092007 | 13 | 120 | 9.7 | 9.7 | 0.00 | 0.00 | 0.00 | 54 | 1016.9 |
| 20260508084008 | 13 | 120 | 4.8 | 4.8 | 0.00 | 0.00 | 0.00 | 62 | 1016.9 |
| 20260508082503 | 13 | 120 | 4.8 | 4.8 | 0.00 | 0.00 | 0.00 | 62 | 1016.9 |
| 20260508075007 | 12 | 120 | 4.8 | 4.8 | 0.00 | 0.00 | 0.00 | 76 | 1015.9 |
| 20260508073504 | 12 | 120 | 4.8 | 4.8 | 0.00 | 0.00 | 0.00 | 76 | 1015.9 |
| 20260508072007 | 12 | 120 | 4.8 | 4.8 | 0.00 | 0.00 | 0.00 | 76 | 1015.9 |
| 20260508063504 | 12 | 120 | 9.7 | 9.7 | 0.00 | 0.00 | 0.00 | 66 | 1014.9 |
| 20260508062007 | 12 | 120 | 9.7 | 9.7 | 0.00 | 0.00 | 0.00 | 66 | 1014.9 |
| 20260508061504 | 12 | 120 | 9.7 | 9.7 | 0.00 | 0.00 | 0.00 | 66 | 1014.9 |
| 20260508060006 | 12 | 120 | 9.7 | 9.7 | 0.00 | 0.00 | 0.00 | 66 | 1014.9 |
| 20260507210004 | 12 | 120 | 9.7 | 12.9 | 0.00 | 0.00 | 0.00 | 66 | 1014.9 |
| 20260507205007 | 12 | 110 | 12.9 | 12.9 | 0.00 | 0.00 | 0.00 | 58 | 1014.9 |
| 20260507204007 | 12 | 110 | 12.9 | 12.9 | 0.00 | 0.00 | 0.00 | 58 | 1014.9 |
| 20260507201007 | 12 | 110 | 12.9 | 12.9 | 0.00 | 0.00 | 0.00 | 58 | 1014.9 |
| 20260507200004 | 12 | 110 | 12.9 | 14.5 | 0.00 | 0.00 | 0.00 | 58 | 1014.9 |
| 20260507195505 | 13 | 120 | 14.5 | 14.5 | 0.00 | 0.00 | 0.00 | 50 | 1014.9 |
| 20260507194007 | 13 | 120 | 14.5 | 14.5 | 0.00 | 0.00 | 0.00 | 50 | 1014.9 |
| 20260507193504 | 13 | 120 | 14.5 | 14.5 | 0.00 | 0.00 | 0.00 | 50 | 1014.9 |
| 20260507193007 | 13 | 120 | 14.5 | 14.5 | 0.00 | 0.00 | 0.00 | 50 | 1014.9 |
| 20260507192503 | 13 | 120 | 14.5 | 14.5 | 0.00 | 0.00 | 0.00 | 50 | 1014.9 |
| 20260507191007 | 13 | 120 | 14.5 | 14.5 | 0.00 | 0.00 | 0.00 | 50 | 1014.9 |
| 20260507190504 | 13 | 120 | 14.5 | 16.1 | 0.00 | 0.00 | 0.00 | 50 | 1014.9 |
| 20260507185504 | 13 | 110 | 16.1 | 16.1 | 0.00 | 0.00 | 0.00 | 47 | 1013.9 |
| 20260507185008 | 13 | 110 | 16.1 | 16.1 | 0.00 | 0.00 | 0.00 | 47 | 1013.9 |
| 20260507184504 | 13 | 110 | 16.1 | 16.1 | 0.00 | 0.00 | 0.00 | 47 | 1013.9 |
| 20260507184007 | 13 | 110 | 16.1 | 16.1 | 0.00 | 0.00 | 0.00 | 47 | 1013.9 |
| 20260507182007 | 13 | 110 | 16.1 | 16.1 | 0.00 | 0.00 | 0.00 | 47 | 1013.9 |
| 20260507181505 | 13 | 110 | 16.1 | 16.1 | 0.00 | 0.00 | 0.00 | 47 | 1013.9 |
| 20260507181008 | 13 | 110 | 16.1 | 16.1 | 0.00 | 0.00 | 0.00 | 47 | 1013.9 |
| 20260507180504 | 13 | 110 | 16.1 | 16.1 | 0.00 | 0.00 | 0.00 | 47 | 1013.9 |
| 20260507180004 | 13 | 110 | 16.1 | 16.1 | 0.00 | 0.00 | 0.00 | 47 | 1013.9 |
| 20260507175007 | 13 | 120 | 14.5 | 14.5 | 0.00 | 0.00 | 0.00 | 44 | 1013.9 |
| 20260507174007 | 13 | 120 | 14.5 | 14.5 | 0.00 | 0.00 | 0.00 | 44 | 1013.9 |
| 20260507173503 | 13 | 120 | 14.5 | 14.5 | 0.00 | 0.00 | 0.00 | 44 | 1013.9 |
| 20260507172504 | 13 | 120 | 14.5 | 14.5 | 0.00 | 0.00 | 0.00 | 44 | 1013.9 |
| 20260507170004 | 13 | 120 | 14.5 | 16.1 | 0.00 | 0.00 | 0.00 | 44 | 1013.9 |
| 20260507165503 | 13 | 120 | 16.1 | 16.1 | 0.00 | 0.00 | 0.00 | 47 | 1013.9 |
| 20260507164007 | 13 | 120 | 16.1 | 16.1 | 0.00 | 0.00 | 0.00 | 47 | 1013.9 |
| 20260507161504 | 13 | 120 | 16.1 | 16.1 | 0.00 | 0.00 | 0.00 | 47 | 1013.9 |
| 20260507160505 | 13 | 120 | 16.1 | 16.1 | 0.00 | 0.00 | 0.00 | 47 | 1013.9 |
| 20260507160004 | 13 | 120 | 16.1 | 16.1 | 0.00 | 0.00 | 0.00 | 47 | 1013.9 |
| 20260507155504 | 15 | 130 | 12.9 | 12.9 | 0.00 | 0.00 | 0.00 | 41 | 1014.9 |
| 20260507155007 | 15 | 130 | 12.9 | 12.9 | 0.00 | 0.00 | 0.00 | 41 | 1014.9 |
| 20260507154504 | 15 | 130 | 12.9 | 12.9 | 0.00 | 0.00 | 0.00 | 41 | 1014.9 |
| 20260507153505 | 15 | 130 | 12.9 | 12.9 | 0.00 | 0.00 | 0.00 | 41 | 1014.9 |
| 20260507153007 | 15 | 130 | 12.9 | 12.9 | 0.00 | 0.00 | 0.00 | 41 | 1014.9 |
| 20260507152505 | 15 | 130 | 12.9 | 12.9 | 0.00 | 0.00 | 0.00 | 41 | 1014.9 |
| 20260507152007 | 15 | 130 | 12.9 | 12.9 | 0.00 | 0.00 | 0.00 | 41 | 1014.9 |
| 20260507151504 | 15 | 130 | 12.9 | 12.9 | 0.00 | 0.00 | 0.00 | 41 | 1014.9 |
| 20260507150505 | 15 | 130 | 12.9 | 12.9 | 0.00 | 0.00 | 0.00 | 41 | 1014.9 |
| 20260507150005 | 15 | 130 | 12.9 | 12.9 | 0.00 | 0.00 | 0.00 | 41 | 1014.9 |
| 20260507144007 | 13 | 130 | 12.9 | 12.9 | 0.00 | 0.00 | 0.00 | 44 | 1014.9 |
| 20260507143503 | 13 | 130 | 12.9 | 12.9 | 0.00 | 0.00 | 0.00 | 44 | 1014.9 |
| 20260507142007 | 13 | 130 | 12.9 | 12.9 | 0.00 | 0.00 | 0.00 | 44 | 1014.9 |
| 20260507141504 | 13 | 130 | 12.9 | 12.9 | 0.00 | 0.00 | 0.00 | 44 | 1014.9 |
| 20260507140504 | 13 | 130 | 12.9 | 12.9 | 0.00 | 0.00 | 0.00 | 44 | 1014.9 |